Year,Month,Day,Hour,Minute,Value (Times are PST for temperature in C)
2010,04,26,00,00,9.90
2010,04,26,00,01,9.90
2010,04,26,00,02,9.90
2010,04,26,00,03,9.90
2010,04,26,00,04,9.90
2010,04,26,00,05,9.90
2010,04,26,00,06,9.90
2010,04,26,00,07,9.90
2010,04,26,00,08,9.90
2010,04,26,00,09,9.90
2010,04,26,00,10,9.90
2010,04,26,00,11,9.90
2010,04,26,00,12,9.90
2010,04,26,00,13,9.90
2010,04,26,00,14,9.90
2010,04,26,00,15,9.90
2010,04,26,00,16,9.90
2010,04,26,00,17,9.90
2010,04,26,00,18,9.90
2010,04,26,00,19,9.90
2010,04,26,00,20,9.90
2010,04,26,00,21,9.90
2010,04,26,00,22,9.90
2010,04,26,00,23,9.90
2010,04,26,00,24,9.90
2010,04,26,00,25,9.90
2010,04,26,00,26,9.90
2010,04,26,00,27,9.90
2010,04,26,00,28,9.90
2010,04,26,00,29,9.90
2010,04,26,00,30,9.90
2010,04,26,00,31,9.90
2010,04,26,00,32,9.90
2010,04,26,00,33,9.90
2010,04,26,00,34,9.90
2010,04,26,00,35,9.80
2010,04,26,00,36,9.80
2010,04,26,00,37,9.80
2010,04,26,00,38,9.80
2010,04,26,00,39,9.80
2010,04,26,00,40,9.80
2010,04,26,00,41,9.90
2010,04,26,00,42,9.90
2010,04,26,00,43,9.90
2010,04,26,00,44,9.90
2010,04,26,00,45,9.90
2010,04,26,00,46,9.90
2010,04,26,00,47,9.90
2010,04,26,00,48,9.90
2010,04,26,00,49,9.90
2010,04,26,00,50,9.90
2010,04,26,00,51,9.90
2010,04,26,00,52,9.90
2010,04,26,00,53,9.90
2010,04,26,00,54,9.90
2010,04,26,00,55,9.90
2010,04,26,00,56,9.80
2010,04,26,00,57,9.80
2010,04,26,00,58,9.80
2010,04,26,00,59,9.80
2010,04,26,01,00,9.80
2010,04,26,01,01,9.80
2010,04,26,01,02,9.80
2010,04,26,01,03,9.70
2010,04,26,01,04,9.70
2010,04,26,01,05,9.70
2010,04,26,01,06,9.70
2010,04,26,01,07,9.70
2010,04,26,01,08,9.70
2010,04,26,01,09,9.70
2010,04,26,01,10,9.70
2010,04,26,01,11,9.70
2010,04,26,01,12,9.70
2010,04,26,01,13,9.70
2010,04,26,01,14,9.70
2010,04,26,01,15,9.70
2010,04,26,01,16,9.70
2010,04,26,01,17,9.70
2010,04,26,01,18,9.70
2010,04,26,01,19,9.70
2010,04,26,01,20,9.70
2010,04,26,01,21,9.70
2010,04,26,01,22,9.70
2010,04,26,01,23,9.70
2010,04,26,01,24,9.70
2010,04,26,01,25,9.70
2010,04,26,01,26,9.70
2010,04,26,01,27,9.80
2010,04,26,01,28,9.80
2010,04,26,01,29,9.80
2010,04,26,01,30,9.80
2010,04,26,01,31,9.90
2010,04,26,01,32,9.90
2010,04,26,01,33,9.90
2010,04,26,01,34,9.90
2010,04,26,01,35,9.90
2010,04,26,01,36,9.90
2010,04,26,01,37,9.90
2010,04,26,01,38,9.90
2010,04,26,01,39,9.80
2010,04,26,01,40,9.80
2010,04,26,01,41,9.70
2010,04,26,01,42,9.70
2010,04,26,01,43,9.70
2010,04,26,01,44,9.70
2010,04,26,01,45,9.70
2010,04,26,01,46,9.70
2010,04,26,01,47,9.70
2010,04,26,01,48,9.70
2010,04,26,01,49,9.70
2010,04,26,01,50,9.70
2010,04,26,01,51,9.70
2010,04,26,01,52,9.70
2010,04,26,01,53,9.70
2010,04,26,01,54,9.70
2010,04,26,01,55,9.70
2010,04,26,01,56,9.70
2010,04,26,01,57,9.70
2010,04,26,01,58,9.70
2010,04,26,01,59,9.70
2010,04,26,02,00,9.70
2010,04,26,02,01,9.70
2010,04,26,02,02,9.80
2010,04,26,02,03,9.80
2010,04,26,02,04,9.80
2010,04,26,02,05,9.80
2010,04,26,02,06,9.70
2010,04,26,02,07,9.70
2010,04,26,02,08,9.70
2010,04,26,02,09,9.70
2010,04,26,02,10,9.70
2010,04,26,02,11,9.70
2010,04,26,02,12,9.70
2010,04,26,02,13,9.70
2010,04,26,02,14,9.70
2010,04,26,02,15,9.60
2010,04,26,02,16,9.60
2010,04,26,02,17,9.60
2010,04,26,02,18,9.60
2010,04,26,02,19,9.60
2010,04,26,02,20,9.60
2010,04,26,02,21,9.60
2010,04,26,02,22,9.60
2010,04,26,02,23,9.60
2010,04,26,02,24,9.60
2010,04,26,02,25,9.60
2010,04,26,02,26,9.60
2010,04,26,02,27,9.60
2010,04,26,02,28,9.60
2010,04,26,02,29,9.60
2010,04,26,02,30,9.60
2010,04,26,02,31,9.60
2010,04,26,02,32,9.60
2010,04,26,02,33,9.60
2010,04,26,02,34,9.60
2010,04,26,02,35,9.60
2010,04,26,02,36,9.60
2010,04,26,02,37,9.60
2010,04,26,02,38,9.50
2010,04,26,02,39,9.50
2010,04,26,02,40,9.50
2010,04,26,02,41,9.50
2010,04,26,02,42,9.50
2010,04,26,02,43,9.40
2010,04,26,02,44,9.40
2010,04,26,02,45,9.40
2010,04,26,02,46,9.40
2010,04,26,02,47,9.30
2010,04,26,02,48,9.30
2010,04,26,02,49,9.30
2010,04,26,02,50,9.30
2010,04,26,02,51,9.20
2010,04,26,02,52,9.20
2010,04,26,02,53,9.20
2010,04,26,02,54,9.30
2010,04,26,02,55,9.30
2010,04,26,02,56,9.30
2010,04,26,02,57,9.40
2010,04,26,02,58,9.40
2010,04,26,02,59,9.50
2010,04,26,03,00,9.50
2010,04,26,03,01,9.60
2010,04,26,03,02,9.60
2010,04,26,03,03,9.60
2010,04,26,03,04,9.60
2010,04,26,03,05,9.60
2010,04,26,03,06,9.60
2010,04,26,03,07,9.60
2010,04,26,03,08,9.60
2010,04,26,03,09,9.60
2010,04,26,03,10,9.60
2010,04,26,03,11,9.50
2010,04,26,03,12,9.50
2010,04,26,03,13,9.50
2010,04,26,03,14,9.50
2010,04,26,03,15,9.60
2010,04,26,03,16,9.60
2010,04,26,03,17,9.60
2010,04,26,03,18,9.60
2010,04,26,03,19,9.70
2010,04,26,03,20,9.70
2010,04,26,03,21,9.70
2010,04,26,03,22,9.70
2010,04,26,03,23,9.60
2010,04,26,03,24,9.60
2010,04,26,03,25,9.60
2010,04,26,03,26,9.60
2010,04,26,03,27,9.60
2010,04,26,03,28,9.60
2010,04,26,03,29,9.60
2010,04,26,03,30,9.60
2010,04,26,03,31,9.60
2010,04,26,03,32,9.60
2010,04,26,03,33,9.60
2010,04,26,03,34,9.70
2010,04,26,03,35,9.70
2010,04,26,03,36,9.70
2010,04,26,03,37,9.80
2010,04,26,03,38,9.80
2010,04,26,03,39,9.90
2010,04,26,03,40,9.90
2010,04,26,03,41,9.90
2010,04,26,03,42,9.90
2010,04,26,03,43,9.90
2010,04,26,03,44,9.90
2010,04,26,03,45,9.90
2010,04,26,03,46,9.90
2010,04,26,03,47,9.90
2010,04,26,03,48,9.90
2010,04,26,03,49,9.90
2010,04,26,03,50,9.90
2010,04,26,03,51,9.90
2010,04,26,03,52,9.90
2010,04,26,03,53,9.90
2010,04,26,03,54,9.90
2010,04,26,03,55,9.90
2010,04,26,03,56,9.90
2010,04,26,03,57,9.90
2010,04,26,03,58,9.90
2010,04,26,03,59,9.90
2010,04,26,04,00,9.90
2010,04,26,04,01,9.90
2010,04,26,04,02,9.90
2010,04,26,04,03,9.90
2010,04,26,04,04,9.90
2010,04,26,04,05,9.90
2010,04,26,04,06,9.90
2010,04,26,04,07,9.90
2010,04,26,04,08,9.90
2010,04,26,04,09,9.90
2010,04,26,04,10,9.90
2010,04,26,04,11,9.90
2010,04,26,04,12,9.90
2010,04,26,04,13,9.90
2010,04,26,04,14,9.90
2010,04,26,04,15,9.90
2010,04,26,04,16,9.90
2010,04,26,04,17,9.90
2010,04,26,04,18,9.90
2010,04,26,04,19,10.00
2010,04,26,04,20,10.00
2010,04,26,04,21,9.90
2010,04,26,04,22,9.90
2010,04,26,04,23,9.90
2010,04,26,04,24,9.90
2010,04,26,04,25,9.90
2010,04,26,04,26,9.90
2010,04,26,04,27,9.90
2010,04,26,04,28,9.90
2010,04,26,04,29,9.90
2010,04,26,04,30,9.90
2010,04,26,04,31,9.90
2010,04,26,04,32,9.90
2010,04,26,04,33,9.90
2010,04,26,04,34,9.90
2010,04,26,04,35,9.90
2010,04,26,04,36,9.90
2010,04,26,04,37,9.90
2010,04,26,04,38,9.80
2010,04,26,04,39,9.80
2010,04,26,04,40,9.80
2010,04,26,04,41,9.80
2010,04,26,04,42,9.80
2010,04,26,04,43,9.80
2010,04,26,04,44,9.80
2010,04,26,04,45,9.80
2010,04,26,04,46,9.80
2010,04,26,04,47,9.80
2010,04,26,04,48,9.80
2010,04,26,04,49,9.80
2010,04,26,04,50,9.80
2010,04,26,04,51,9.80
2010,04,26,04,52,9.80
2010,04,26,04,53,9.80
2010,04,26,04,54,9.70
2010,04,26,04,55,9.70
2010,04,26,04,56,9.80
2010,04,26,04,57,9.80
2010,04,26,04,58,9.80
2010,04,26,04,59,9.80
2010,04,26,05,00,9.80
2010,04,26,05,01,9.90
2010,04,26,05,02,9.90
2010,04,26,05,03,9.90
2010,04,26,05,04,10.00
2010,04,26,05,05,10.10
2010,04,26,05,06,10.10
2010,04,26,05,07,10.10
2010,04,26,05,08,10.10
2010,04,26,05,09,10.10
2010,04,26,05,10,10.10
2010,04,26,05,11,10.10
2010,04,26,05,12,10.10
2010,04,26,05,13,10.20
2010,04,26,05,14,10.20
2010,04,26,05,15,10.20
2010,04,26,05,16,10.20
2010,04,26,05,17,10.20
2010,04,26,05,18,10.20
2010,04,26,05,19,10.20
2010,04,26,05,20,10.20
2010,04,26,05,21,10.20
2010,04,26,05,22,10.20
2010,04,26,05,23,10.20
2010,04,26,05,24,10.20
2010,04,26,05,25,10.20
2010,04,26,05,26,10.20
2010,04,26,05,27,10.20
2010,04,26,05,28,10.20
2010,04,26,05,29,10.20
2010,04,26,05,30,10.20
2010,04,26,05,31,10.20
2010,04,26,05,32,10.20
2010,04,26,05,33,10.20
2010,04,26,05,34,10.20
2010,04,26,05,35,10.20
2010,04,26,05,36,10.20
2010,04,26,05,37,10.20
2010,04,26,05,38,10.30
2010,04,26,05,39,10.40
2010,04,26,05,40,10.40
2010,04,26,05,41,10.40
2010,04,26,05,42,10.40
2010,04,26,05,43,10.50
2010,04,26,05,44,10.60
2010,04,26,05,45,10.60
2010,04,26,05,46,10.60
2010,04,26,05,47,10.60
2010,04,26,05,48,10.60
2010,04,26,05,49,10.50
2010,04,26,05,50,10.40
2010,04,26,05,51,10.40
2010,04,26,05,52,10.40
2010,04,26,05,53,10.40
2010,04,26,05,54,10.50
2010,04,26,05,55,10.60
2010,04,26,05,56,10.60
2010,04,26,05,57,10.60
2010,04,26,05,58,10.60
2010,04,26,05,59,10.60
2010,04,26,06,00,10.60
2010,04,26,06,01,10.60
2010,04,26,06,02,10.60
2010,04,26,06,03,10.60
2010,04,26,06,04,10.60
2010,04,26,06,05,10.60
2010,04,26,06,06,10.60
2010,04,26,06,07,10.60
2010,04,26,06,08,10.60
2010,04,26,06,09,10.60
2010,04,26,06,10,10.60
2010,04,26,06,11,10.60
2010,04,26,06,12,10.60
2010,04,26,06,13,10.60
2010,04,26,06,14,10.60
2010,04,26,06,15,10.60
2010,04,26,06,16,10.60
2010,04,26,06,17,10.60
2010,04,26,06,18,10.60
2010,04,26,06,19,10.60
2010,04,26,06,20,10.60
2010,04,26,06,21,10.60
2010,04,26,06,22,10.60
2010,04,26,06,23,10.60
2010,04,26,06,24,10.60
2010,04,26,06,25,10.60
2010,04,26,06,26,10.60
2010,04,26,06,27,10.60
2010,04,26,06,28,10.60
2010,04,26,06,29,10.60
2010,04,26,06,30,10.60
2010,04,26,06,31,10.60
2010,04,26,06,32,10.60
2010,04,26,06,33,10.60
2010,04,26,06,34,10.70
2010,04,26,06,35,10.70
2010,04,26,06,36,10.70
2010,04,26,06,37,10.70
2010,04,26,06,38,10.80
2010,04,26,06,39,10.80
2010,04,26,06,40,10.80
2010,04,26,06,41,10.80
2010,04,26,06,42,10.80
2010,04,26,06,43,10.80
2010,04,26,06,44,10.90
2010,04,26,06,45,10.90
2010,04,26,06,46,11.10
2010,04,26,06,47,11.10
2010,04,26,06,48,11.10
2010,04,26,06,49,11.10
2010,04,26,06,50,11.10
2010,04,26,06,51,11.10
2010,04,26,06,52,11.10
2010,04,26,06,53,11.00
2010,04,26,06,54,10.90
2010,04,26,06,55,10.90
2010,04,26,06,56,10.90
2010,04,26,06,57,10.90
2010,04,26,06,58,11.00
2010,04,26,06,59,11.20
2010,04,26,07,00,11.30
2010,04,26,07,01,11.40
2010,04,26,07,02,11.50
2010,04,26,07,03,11.60
2010,04,26,07,04,11.70
2010,04,26,07,05,11.70
2010,04,26,07,06,11.80
2010,04,26,07,07,11.80
2010,04,26,07,08,11.80
2010,04,26,07,09,11.80
2010,04,26,07,10,11.80
2010,04,26,07,11,11.80
2010,04,26,07,12,11.90
2010,04,26,07,13,12.00
2010,04,26,07,14,12.10
2010,04,26,07,15,12.10
2010,04,26,07,16,12.20
2010,04,26,07,17,12.20
2010,04,26,07,18,12.20
2010,04,26,07,19,12.30
2010,04,26,07,20,12.30
2010,04,26,07,21,12.30
2010,04,26,07,22,12.30
2010,04,26,07,23,12.30
2010,04,26,07,24,12.30
2010,04,26,07,25,12.30
2010,04,26,07,26,12.30
2010,04,26,07,27,12.30
2010,04,26,07,28,12.30
2010,04,26,07,29,12.30
2010,04,26,07,30,12.30
2010,04,26,07,31,12.30
2010,04,26,07,32,12.30
2010,04,26,07,33,12.30
2010,04,26,07,34,12.30
2010,04,26,07,35,12.30
2010,04,26,07,36,12.30
2010,04,26,07,37,12.30
2010,04,26,07,38,12.30
2010,04,26,07,39,12.30
2010,04,26,07,40,12.30
2010,04,26,07,41,12.30
2010,04,26,07,42,12.30
2010,04,26,07,43,12.30
2010,04,26,07,44,12.30
2010,04,26,07,45,12.30
2010,04,26,07,46,12.30
2010,04,26,07,47,12.30
2010,04,26,07,48,12.30
2010,04,26,07,49,12.30
2010,04,26,07,50,12.30
2010,04,26,07,51,12.30
2010,04,26,07,52,12.30
2010,04,26,07,53,12.30
2010,04,26,07,54,12.30
2010,04,26,07,55,12.30
2010,04,26,07,56,12.30
2010,04,26,07,57,12.30
2010,04,26,07,58,12.30
2010,04,26,07,59,12.30
2010,04,26,08,00,12.30
2010,04,26,08,01,12.30
2010,04,26,08,02,12.40
2010,04,26,08,03,12.40
2010,04,26,08,04,12.40
2010,04,26,08,05,12.50
2010,04,26,08,06,12.50
2010,04,26,08,07,12.50
2010,04,26,08,08,12.60
2010,04,26,08,09,12.60
2010,04,26,08,10,12.60
2010,04,26,08,11,12.60
2010,04,26,08,12,12.60
2010,04,26,08,13,12.60
2010,04,26,08,14,12.60
2010,04,26,08,15,12.60
2010,04,26,08,16,12.50
2010,04,26,08,17,12.50
2010,04,26,08,18,12.50
2010,04,26,08,19,12.50
2010,04,26,08,20,12.50
2010,04,26,08,21,12.50
2010,04,26,08,22,12.50
2010,04,26,08,23,12.50
2010,04,26,08,24,12.50
2010,04,26,08,25,12.50
2010,04,26,08,26,12.50
2010,04,26,08,27,12.50
2010,04,26,08,28,12.50
2010,04,26,08,29,12.50
2010,04,26,08,30,12.50
2010,04,26,08,31,12.60
2010,04,26,08,32,12.60
2010,04,26,08,33,12.70
2010,04,26,08,34,12.60
2010,04,26,08,35,12.60
2010,04,26,08,36,12.60
2010,04,26,08,37,12.60
2010,04,26,08,38,12.60
2010,04,26,08,39,12.60
2010,04,26,08,40,12.60
2010,04,26,08,41,12.60
2010,04,26,08,42,12.60
2010,04,26,08,43,12.60
2010,04,26,08,44,12.60
2010,04,26,08,45,12.60
2010,04,26,08,46,12.50
2010,04,26,08,47,12.50
2010,04,26,08,48,12.50
2010,04,26,08,49,12.50
2010,04,26,08,50,12.50
2010,04,26,08,51,12.50
2010,04,26,08,52,12.50
2010,04,26,08,53,12.50
2010,04,26,08,54,12.40
2010,04,26,08,55,12.40
2010,04,26,08,56,12.40
2010,04,26,08,57,12.40
2010,04,26,08,58,12.40
2010,04,26,08,59,12.40
2010,04,26,09,00,12.40
2010,04,26,09,01,12.40
2010,04,26,09,02,12.30
2010,04,26,09,03,12.30
2010,04,26,09,04,12.30
2010,04,26,09,05,12.30
2010,04,26,09,06,12.40
2010,04,26,09,07,12.40
2010,04,26,09,08,12.40
2010,04,26,09,09,12.40
2010,04,26,09,10,12.40
2010,04,26,09,11,12.50
2010,04,26,09,12,12.50
2010,04,26,09,13,12.50
2010,04,26,09,14,12.50
2010,04,26,09,15,12.50
2010,04,26,09,16,12.50
2010,04,26,09,17,12.50
2010,04,26,09,18,12.40
2010,04,26,09,19,12.50
2010,04,26,09,20,12.50
2010,04,26,09,21,12.50
2010,04,26,09,22,12.50
2010,04,26,09,23,12.50
2010,04,26,09,24,12.60
2010,04,26,09,25,12.60
2010,04,26,09,26,12.60
2010,04,26,09,27,12.60
2010,04,26,09,28,12.70
2010,04,26,09,29,12.70
2010,04,26,09,30,12.80
2010,04,26,09,31,12.80
2010,04,26,09,32,12.90
2010,04,26,09,33,12.90
2010,04,26,09,34,13.00
2010,04,26,09,35,13.10
2010,04,26,09,36,13.20
2010,04,26,09,37,13.30
2010,04,26,09,38,13.40
2010,04,26,09,39,13.50
2010,04,26,09,40,13.50
2010,04,26,09,41,13.50
2010,04,26,09,42,13.50
2010,04,26,09,43,13.50
2010,04,26,09,44,13.50
2010,04,26,09,45,13.40
2010,04,26,09,46,13.40
2010,04,26,09,47,13.50
2010,04,26,09,48,13.50
2010,04,26,09,49,13.50
2010,04,26,09,50,13.50
2010,04,26,09,51,13.50
2010,04,26,09,52,13.60
2010,04,26,09,53,13.60
2010,04,26,09,54,13.60
2010,04,26,09,55,13.70
2010,04,26,09,56,13.80
2010,04,26,09,57,13.80
2010,04,26,09,58,13.90
2010,04,26,09,59,13.90
2010,04,26,10,00,13.80
2010,04,26,10,01,13.70
2010,04,26,10,02,13.70
2010,04,26,10,03,13.70
2010,04,26,10,04,13.70
2010,04,26,10,05,13.70
2010,04,26,10,06,13.70
2010,04,26,10,07,13.80
2010,04,26,10,08,13.80
2010,04,26,10,09,13.80
2010,04,26,10,10,13.80
2010,04,26,10,11,13.80
2010,04,26,10,12,13.80
2010,04,26,10,13,13.80
2010,04,26,10,14,13.90
2010,04,26,10,15,13.90
2010,04,26,10,16,13.90
2010,04,26,10,17,14.00
2010,04,26,10,18,14.00
2010,04,26,10,19,14.00
2010,04,26,10,20,14.10
2010,04,26,10,21,14.20
2010,04,26,10,22,14.40
2010,04,26,10,23,14.50
2010,04,26,10,24,14.60
2010,04,26,10,25,14.60
2010,04,26,10,26,14.60
2010,04,26,10,27,14.50
2010,04,26,10,28,14.50
2010,04,26,10,29,14.40
2010,04,26,10,30,14.40
2010,04,26,10,31,14.30
2010,04,26,10,32,14.30
2010,04,26,10,33,14.30
2010,04,26,10,34,14.20
2010,04,26,10,35,14.20
2010,04,26,10,36,14.20
2010,04,26,10,37,14.20
2010,04,26,10,38,14.30
2010,04,26,10,39,14.40
2010,04,26,10,40,14.40
2010,04,26,10,41,14.30
2010,04,26,10,42,14.30
2010,04,26,10,43,14.20
2010,04,26,10,44,14.20
2010,04,26,10,45,14.20
2010,04,26,10,46,14.30
2010,04,26,10,47,14.30
2010,04,26,10,48,14.40
2010,04,26,10,49,14.40
2010,04,26,10,50,14.40
2010,04,26,10,51,14.40
2010,04,26,10,52,14.40
2010,04,26,10,53,14.40
2010,04,26,10,54,14.40
2010,04,26,10,55,14.50
2010,04,26,10,56,14.50
2010,04,26,10,57,14.60
2010,04,26,10,58,14.60
2010,04,26,10,59,14.70
2010,04,26,11,00,14.80
2010,04,26,11,01,14.80
2010,04,26,11,02,14.80
2010,04,26,11,03,14.80
2010,04,26,11,04,14.80
2010,04,26,11,05,14.80
2010,04,26,11,06,14.90
2010,04,26,11,07,14.90
2010,04,26,11,08,15.00
2010,04,26,11,09,15.00
2010,04,26,11,10,15.00
2010,04,26,11,11,15.00
2010,04,26,11,12,14.90
2010,04,26,11,13,14.90
2010,04,26,11,14,14.90
2010,04,26,11,15,14.90
2010,04,26,11,16,14.80
2010,04,26,11,17,14.80
2010,04,26,11,18,14.70
2010,04,26,11,19,14.70
2010,04,26,11,20,14.70
2010,04,26,11,21,14.80
2010,04,26,11,22,14.80
2010,04,26,11,23,14.90
2010,04,26,11,24,14.90
2010,04,26,11,25,14.90
2010,04,26,11,26,15.00
2010,04,26,11,27,15.00
2010,04,26,11,28,15.00
2010,04,26,11,29,15.00
2010,04,26,11,30,15.00
2010,04,26,11,31,15.00
2010,04,26,11,32,15.00
2010,04,26,11,33,15.00
2010,04,26,11,34,15.00
2010,04,26,11,35,15.10
2010,04,26,11,36,15.10
2010,04,26,11,37,15.10
2010,04,26,11,38,15.20
2010,04,26,11,39,15.20
2010,04,26,11,40,15.20
2010,04,26,11,41,15.30
2010,04,26,11,42,15.30
2010,04,26,11,43,15.30
2010,04,26,11,44,15.30
2010,04,26,11,45,15.30
2010,04,26,11,46,15.40
2010,04,26,11,47,15.50
2010,04,26,11,48,15.50
2010,04,26,11,49,15.50
2010,04,26,11,50,15.60
2010,04,26,11,51,15.70
2010,04,26,11,52,15.70
2010,04,26,11,53,15.80
2010,04,26,11,54,15.80
2010,04,26,11,55,15.80
2010,04,26,11,56,15.80
2010,04,26,11,57,15.80
2010,04,26,11,58,15.80
2010,04,26,11,59,15.80
2010,04,26,12,00,15.80
2010,04,26,12,01,15.80
2010,04,26,12,02,15.80
2010,04,26,12,03,15.80
2010,04,26,12,04,15.80
2010,04,26,12,05,15.80
2010,04,26,12,06,15.70
2010,04,26,12,07,15.70
2010,04,26,12,08,15.70
2010,04,26,12,09,15.70
2010,04,26,12,10,15.70
2010,04,26,12,11,15.70
2010,04,26,12,12,15.70
2010,04,26,12,13,15.70
2010,04,26,12,14,15.70
2010,04,26,12,15,15.70
2010,04,26,12,16,15.60
2010,04,26,12,17,15.70
2010,04,26,12,18,15.70
2010,04,26,12,19,15.70
2010,04,26,12,20,15.70
2010,04,26,12,21,15.60
2010,04,26,12,22,15.60
2010,04,26,12,23,15.60
2010,04,26,12,24,15.60
2010,04,26,12,25,15.60
2010,04,26,12,26,15.60
2010,04,26,12,27,15.60
2010,04,26,12,28,15.70
2010,04,26,12,29,15.60
2010,04,26,12,30,15.60
2010,04,26,12,31,15.60
2010,04,26,12,32,15.60
2010,04,26,12,33,15.60
2010,04,26,12,34,15.60
2010,04,26,12,35,15.60
2010,04,26,12,36,15.60
2010,04,26,12,37,15.60
2010,04,26,12,38,15.60
2010,04,26,12,39,15.60
2010,04,26,12,40,15.60
2010,04,26,12,41,15.60
2010,04,26,12,42,15.60
2010,04,26,12,43,15.50
2010,04,26,12,44,15.50
2010,04,26,12,45,15.50
2010,04,26,12,46,15.60
2010,04,26,12,47,15.60
2010,04,26,12,48,15.60
2010,04,26,12,49,15.60
2010,04,26,12,50,15.70
2010,04,26,12,51,15.70
2010,04,26,12,52,15.70
2010,04,26,12,53,15.60
2010,04,26,12,54,15.60
2010,04,26,12,55,15.60
2010,04,26,12,56,15.60
2010,04,26,12,57,15.60
2010,04,26,12,58,15.60
2010,04,26,12,59,15.60
2010,04,26,13,00,15.60
2010,04,26,13,01,15.60
2010,04,26,13,02,15.50
2010,04,26,13,03,15.50
2010,04,26,13,04,15.50
2010,04,26,13,05,15.50
2010,04,26,13,06,15.50
2010,04,26,13,07,15.60
2010,04,26,13,08,15.60
2010,04,26,13,09,15.60
2010,04,26,13,10,15.60
2010,04,26,13,11,15.50
2010,04,26,13,12,15.50
2010,04,26,13,13,15.50
2010,04,26,13,14,15.50
2010,04,26,13,15,15.50
2010,04,26,13,16,15.50
2010,04,26,13,17,15.50
2010,04,26,13,18,15.50
2010,04,26,13,19,15.50
2010,04,26,13,20,15.50
2010,04,26,13,21,15.50
2010,04,26,13,22,15.40
2010,04,26,13,23,15.40
2010,04,26,13,24,15.30
2010,04,26,13,25,15.30
2010,04,26,13,26,15.30
2010,04,26,13,27,15.30
2010,04,26,13,28,15.20
2010,04,26,13,29,15.20
2010,04,26,13,30,15.20
2010,04,26,13,31,15.10
2010,04,26,13,32,15.10
2010,04,26,13,33,15.10
2010,04,26,13,34,15.10
2010,04,26,13,35,15.10
2010,04,26,13,36,15.10
2010,04,26,13,37,15.10
2010,04,26,13,38,15.10
2010,04,26,13,39,15.10
2010,04,26,13,40,15.10
2010,04,26,13,41,15.10
2010,04,26,13,42,15.10
2010,04,26,13,43,15.10
2010,04,26,13,44,15.10
2010,04,26,13,45,15.10
2010,04,26,13,46,15.10
2010,04,26,13,47,15.10
2010,04,26,13,48,15.10
2010,04,26,13,49,15.10
2010,04,26,13,50,15.20
2010,04,26,13,51,15.20
2010,04,26,13,52,15.30
2010,04,26,13,53,15.30
2010,04,26,13,54,15.30
2010,04,26,13,55,15.40
2010,04,26,13,56,15.40
2010,04,26,13,57,15.40
2010,04,26,13,58,15.50
2010,04,26,13,59,15.50
2010,04,26,14,00,15.50
2010,04,26,14,01,15.50
2010,04,26,14,02,15.50
2010,04,26,14,03,15.50
2010,04,26,14,04,15.50
2010,04,26,14,05,15.50
2010,04,26,14,06,15.50
2010,04,26,14,07,15.50
2010,04,26,14,08,15.50
2010,04,26,14,09,15.50
2010,04,26,14,10,15.50
2010,04,26,14,11,15.50
2010,04,26,14,12,15.50
2010,04,26,14,13,15.40
2010,04,26,14,14,15.40
2010,04,26,14,15,15.30
2010,04,26,14,16,15.30
2010,04,26,14,17,15.30
2010,04,26,14,18,15.30
2010,04,26,14,19,15.30
2010,04,26,14,20,15.30
2010,04,26,14,21,15.30
2010,04,26,14,22,15.20
2010,04,26,14,23,15.20
2010,04,26,14,24,15.30
2010,04,26,14,25,15.30
2010,04,26,14,26,15.30
2010,04,26,14,27,15.30
2010,04,26,14,28,15.30
2010,04,26,14,29,15.30
2010,04,26,14,30,15.30
2010,04,26,14,31,15.30
2010,04,26,14,32,15.40
2010,04,26,14,33,15.40
2010,04,26,14,34,15.40
2010,04,26,14,35,15.40
2010,04,26,14,36,15.50
2010,04,26,14,37,15.50
2010,04,26,14,38,15.50
2010,04,26,14,39,15.50
2010,04,26,14,40,15.50
2010,04,26,14,41,15.50
2010,04,26,14,42,15.50
2010,04,26,14,43,15.50
2010,04,26,14,44,15.40
2010,04,26,14,45,15.40
2010,04,26,14,46,15.40
2010,04,26,14,47,15.40
2010,04,26,14,48,15.40
2010,04,26,14,49,15.40
2010,04,26,14,50,15.40
2010,04,26,14,51,15.40
2010,04,26,14,52,15.40
2010,04,26,14,53,15.40
2010,04,26,14,54,15.40
2010,04,26,14,55,15.40
2010,04,26,14,56,15.40
2010,04,26,14,57,15.40
2010,04,26,14,58,15.40
2010,04,26,14,59,15.40
2010,04,26,15,00,15.40
2010,04,26,15,01,15.40
2010,04,26,15,02,15.40
2010,04,26,15,03,15.30
2010,04,26,15,04,15.30
2010,04,26,15,05,15.30
2010,04,26,15,06,15.30
2010,04,26,15,07,15.30
2010,04,26,15,08,15.30
2010,04,26,15,09,15.30
2010,04,26,15,10,15.30
2010,04,26,15,11,15.30
2010,04,26,15,12,15.30
2010,04,26,15,13,15.30
2010,04,26,15,14,15.30
2010,04,26,15,15,15.30
2010,04,26,15,16,15.30
2010,04,26,15,17,15.30
2010,04,26,15,18,15.30
2010,04,26,15,19,15.30
2010,04,26,15,20,15.30
2010,04,26,15,21,15.30
2010,04,26,15,22,15.30
2010,04,26,15,23,15.30
2010,04,26,15,24,15.30
2010,04,26,15,25,15.20
2010,04,26,15,26,15.20
2010,04,26,15,27,15.20
2010,04,26,15,28,15.20
2010,04,26,15,29,15.20
2010,04,26,15,30,15.20
2010,04,26,15,31,15.10
2010,04,26,15,32,15.10
2010,04,26,15,33,15.10
2010,04,26,15,34,15.10
2010,04,26,15,35,15.10
2010,04,26,15,36,15.10
2010,04,26,15,37,15.00
2010,04,26,15,38,15.00
2010,04,26,15,39,15.00
2010,04,26,15,40,15.00
2010,04,26,15,41,14.90
2010,04,26,15,42,14.90
2010,04,26,15,43,14.90
2010,04,26,15,44,14.80
2010,04,26,15,45,14.80
2010,04,26,15,46,14.80
2010,04,26,15,47,14.80
2010,04,26,15,48,14.80
2010,04,26,15,49,14.80
2010,04,26,15,50,14.80
2010,04,26,15,51,14.80
2010,04,26,15,52,14.90
2010,04,26,15,53,14.90
2010,04,26,15,54,14.90
2010,04,26,15,55,14.90
2010,04,26,15,56,14.90
2010,04,26,15,57,14.90
2010,04,26,15,58,14.90
2010,04,26,15,59,14.80
2010,04,26,16,00,14.80
2010,04,26,16,01,14.80
2010,04,26,16,02,14.80
2010,04,26,16,03,14.70
2010,04,26,16,04,14.70
2010,04,26,16,05,14.70
2010,04,26,16,06,14.70
2010,04,26,16,07,14.70
2010,04,26,16,08,14.70
2010,04,26,16,09,14.70
2010,04,26,16,10,14.70
2010,04,26,16,11,14.70
2010,04,26,16,12,14.70
2010,04,26,16,13,14.70
2010,04,26,16,14,14.70
2010,04,26,16,15,14.70
2010,04,26,16,16,14.60
2010,04,26,16,17,14.70
2010,04,26,16,18,14.70
2010,04,26,16,19,14.70
2010,04,26,16,20,14.70
2010,04,26,16,21,14.70
2010,04,26,16,22,14.70
2010,04,26,16,23,14.70
2010,04,26,16,24,14.70
2010,04,26,16,25,14.70
2010,04,26,16,26,14.80
2010,04,26,16,27,14.80
2010,04,26,16,28,14.80
2010,04,26,16,29,14.90
2010,04,26,16,30,14.90
2010,04,26,16,31,14.90
2010,04,26,16,32,14.90
2010,04,26,16,33,14.90
2010,04,26,16,34,14.90
2010,04,26,16,35,14.80
2010,04,26,16,36,14.80
2010,04,26,16,37,14.80
2010,04,26,16,38,14.80
2010,04,26,16,39,14.80
2010,04,26,16,40,14.80
2010,04,26,16,41,14.70
2010,04,26,16,42,14.70
2010,04,26,16,43,14.70
2010,04,26,16,44,14.60
2010,04,26,16,45,14.60
2010,04,26,16,46,14.60
2010,04,26,16,47,14.60
2010,04,26,16,48,14.50
2010,04,26,16,49,14.40
2010,04,26,16,50,14.30
2010,04,26,16,51,14.20
2010,04,26,16,52,14.20
2010,04,26,16,53,14.10
2010,04,26,16,54,14.00
2010,04,26,16,55,13.90
2010,04,26,16,56,13.90
2010,04,26,16,57,13.80
2010,04,26,16,58,13.80
2010,04,26,16,59,13.70
2010,04,26,17,00,13.70
2010,04,26,17,01,13.60
2010,04,26,17,02,13.60
2010,04,26,17,03,13.60
2010,04,26,17,04,13.50
2010,04,26,17,05,13.50
2010,04,26,17,06,13.50
2010,04,26,17,07,13.40
2010,04,26,17,08,13.40
2010,04,26,17,09,13.40
2010,04,26,17,10,13.30
2010,04,26,17,11,13.30
2010,04,26,17,12,13.30
2010,04,26,17,13,13.20
2010,04,26,17,14,13.20
2010,04,26,17,15,13.20
2010,04,26,17,16,13.10
2010,04,26,17,17,13.10
2010,04,26,17,18,13.10
2010,04,26,17,19,13.10
2010,04,26,17,20,13.10
2010,04,26,17,21,13.00
2010,04,26,17,22,13.00
2010,04,26,17,23,13.00
2010,04,26,17,24,12.90
2010,04,26,17,25,12.90
2010,04,26,17,26,12.90
2010,04,26,17,27,12.80
2010,04,26,17,28,12.80
2010,04,26,17,29,12.80
2010,04,26,17,30,12.80
2010,04,26,17,31,12.80
2010,04,26,17,32,12.80